Regional Weather Roundup
Issued by NWS

Home | Current Version | Previous Version | Graphics & Text | Print | Product List | Glossary Off
Versions: 1 2 3 4 5 6 7 8 9 10 11 12 13 14 15 16 17 18 19 20 21 22 23 24 25 26 27 28 29 30 31 32 33 34 35 36 37 38 39 40 41 42 43 44 45 46 47 48 49 50

000
ASUS43 KTOP 030508
RWRKS

WEATHER ROUNDUP FOR KANSAS
NATIONAL WEATHER SERVICE GOODLAND KS
1200 AM CDT WED JUN 03 2015

NOTE:  "FAIR" INDICATES FEW OR NO CLOUDS BELOW 12,000 FEET WITH NO
SIGNIFICANT WEATHER AND/OR OBSTRUCTIONS TO VISIBILITY.

KSZ001>006-013>018-027>032-041>047-030600-
NORTHWEST KANSAS

CITY           SKY/WX    TMP DP  RH WIND       PRES   REMARKS
GOODLAND       CLEAR     67  59  75 S10       29.81R
HAYS           CLEAR     73  61  64 S14G21    29.81S
HILL CITY      CLEAR     75  64  68 S14       29.78R
RUSSELL        CLEAR     75  66  73 S18       29.80R
$$

KSZ061>065-074>080-084>089-030600-
SOUTHWEST KANSAS

CITY           SKY/WX    TMP DP  RH WIND       PRES   REMARKS
DODGE CITY     CLEAR     74  61  63 S17       29.85S
ELKHART          N/A     70  58  66 S12         N/A
GARDEN CITY    CLEAR     71  61  70 S16       29.83S
GREAT BEND     CLEAR     73  64  73 S17G23    29.82S
LIBERAL        CLEAR     72  61  68 S13       29.87R
PRATT          CLEAR     73  63  68 S18G25    29.87S
$$

KSZ066>073-081>083-090>101-030600-
SOUTHEAST KANSAS

CITY           SKY/WX    TMP DP  RH WIND       PRES   REMARKS
CHANUTE        PTCLDY    71  68  90 SE8       29.94S
COFFEYVILLE    CLEAR     72  67  84 SE7       29.93S
HUTCHINSON     CLEAR     76  66  71 S14       29.86S
MEDICINE LODGE   N/A     75  66  73 S10G18    29.86S
NEWTON         CLEAR     73  63  68 S12       29.91S
PARSONS        PTCLDY    73  67  81 SE5       29.95S
WICHITA INTL   PTCLDY    75  67  76 S16       29.88S
WICHITA JABRA  CLEAR     74  67  78 S15G22    29.89R
WICHITA MCCONL CLEAR     74  68  80 SE13      29.89S
WINFIELD       CLEAR     74  67  78 S12       29.92R
$$

KSZ007>012-019>026-033>040-048>060-102>105-030600-
NORTHEAST KANSAS

CITY           SKY/WX    TMP DP  RH WIND       PRES   REMARKS
CONCORDIA      CLEAR     72  67  84 SE16      29.85R
EMPORIA        CLEAR     71  66  84 SE9       29.91F
LAWRENCE       CLEAR     67  60  78 SE7       29.94F
MANHATTAN      PTCLDY    72  68  87 E8        29.88F
MARYSVILLE     CLEAR     68  64  88 SE14      29.88S
OLATHE IND     CLEAR     66  60  81 SE10      29.96F
OLATHE EXE     CLEAR     66  60  81 SE9       29.96S
SALINA         CLEAR     75  67  76 SE13      29.84S
TOPEKA BILLARD CLEAR     69  62  78 SE12      29.93F
TOPEKA FORBES  CLEAR     69  61  75 SE10      29.92F
$$



USA.gov is the U.S. government's official web portal to all federal, state and local government web resources and services.